User: anonymous   Login
Location: UBC Liquid-Mirror Observatory
(49.2876°N, 122.5728°W)
Time: 17:18:04
(UTC-07:00)
Language:

Cosmos 1315 - Orbit

View from above orbital plane
View from above orbital plane
View from above satellite
View from above satellite

Ground track
Ground track

The orbit data is extracted from the following two-line orbital elements,

1 12903U 81103A   15088.69058936  .00086738  00000-0  73964-3 0  9990
2 12903 081.1262 155.7128 0001136 280.2286 199.4476 15.69228772834706
Epoch (UTC): 29 March 2015 16:34:26
Eccentricity: 0.0001136
inclination: 81.1262°
perigee height: 360 km
apogee height: 362 km
right ascension of ascending node: 155.7128°
argument of perigee: 280.2286°
revolutions per day: 15.69228772
mean anomaly at epoch: 199.4476°
orbit number at epoch: 83470

The dashed part of the orbit path shows where the satellite is in the earth's shadow,  

DLR